User: anonymous   Login
Location: Newark
(45.6439°N, 0.5436°E)
Time: 01:39:07
(UTC+00:00)
Language:

N. Korean satellite - Orbit

View from above orbital plane
View from above orbital plane
View from above satellite
View from above satellite

Ground track
Ground track

The orbit data is extracted from the following two-line orbital elements,

1 39026U 12072A   19347.52705863  .00000567  00000-0  22867-4 0  9999
2 39026  97.2159 345.0094 0037412 186.3976 173.6792 15.28231147388757
Epoch (UTC): 13 December 2019 12:38:57
Eccentricity: 0.0037412
inclination: 97.2159°
perigee height: 455 km
apogee height: 507 km
right ascension of ascending node: 345.0094°
argument of perigee: 186.3976°
revolutions per day: 15.28231147
mean anomaly at epoch: 173.6792°
orbit number at epoch: 38875

The dashed part of the orbit path shows where the satellite is in the earth's shadow,  

DLR